MOLNIYA 3-31

Last updated on Jan. 25, 2020, 4:43 a.m. UTC

1 17328U 87008A   20023.61393051  .00000578  00000-0  00000-0 0  9999
2 17328  63.8360 219.9871 6698694 262.0166  23.0758  2.00607996238295
UTC
Height (km)
Latitude
Longitude
Inclination
Orbital Period
UTC large
Height (km)
Speed (km/s)
/
Latitude / Longitude
Inclination (degrees)
Orbital Period (minutes)
Azimuth
Elevation
Range (km)
Doppler Factor
iOS Compass Heading
iOS Angle

Next 30 passes for location: Hong Kong

Rise time Rise Azimuth (degrees) Set time Set Azimuth (degrees) Duration Max altitude (degrees)

No matching passes for this satellites